Flag for Germany Weather past 2 weeks in Delmenhorst, Lower Saxony, Germany

Now
39 °F

Fog.


Feels Like: 39 °F
Forecast: 46 / 56 °F
Wind: 2 mph from North

Location: Bremen Airport

Current Time: May 29, 2015 at 4:24:16 AM

Latest Report: May 29, 2015 at 3:50 AM


Visibility: N/A

Pressure: 29.92 "Hg

Humidity: 100%

Dew point: 39 °F

Location of DelmenhorstLocation

Historic Weather in Delmenhorst — Graph

°F

Delmenhorst temperature yesterday

Maximum temperature yesterday: 59 °F (at 8:50 AM)
Minimum temperature yesterday: 45 °F (at 11:20 PM)
Average temperature yesterday: 54 °F

Past Weeks' High & Low Weather Summary

 TemperatureHumidityPressure
High66 °F (May 22, 1:50 PM)100% (May 16, 1:50 AM)30.30 "Hg (May 16, 1:50 AM)
Low34 °F (May 16, 5:20 AM)36% (May 25, 4:50 PM)29.59 "Hg (May 18, 7:20 PM)
Average52 °F74%30.03 "Hg
* Reported May 14 3:20 AM — May 29 3:20 AM, Delmenhorst, Weather by CustomWeather, © 2015

Note: Actual official high and low records may vary slightly from our data, if they occured in-between our weather recording intervals... More about our weather records

Advertising

Delmenhorst weather history for previous 24 hours

 ConditionsComfort  
Time TempWeatherWind HumidityBarometerVisibility
3:20 AM
Fri, May 29
39 °FFog.3 mph100%29.92 "HgN/A
2:50 AM41 °FFog.3 mph100%29.92 "HgN/A
2:20 AM41 °FFog.1 mph100%29.92 "HgN/A
1:50 AM41 °FFog.2 mph100%29.92 "HgN/A
1:20 AM41 °FFog.No wind100%29.92 "HgN/A
12:50 AM41 °FFog.2 mph93%29.92 "HgN/A
12:20 AM41 °FFog.2 mph100%29.92 "HgN/A
11:50 PM
Thu, May 28
45 °FFog.2 mph93%29.92 "HgN/A
11:20 PM45 °FClear.2 mph87%29.92 "Hg10 mi
10:50 PM46 °FClear.5 mph87%29.92 "Hg10 mi
10:20 PM48 °FPassing clouds.5 mph82%29.92 "HgN/A
9:50 PM50 °FPassing clouds.7 mph76%29.92 "HgN/A
9:20 PM52 °FPassing clouds.7 mph77%29.89 "HgN/A
8:50 PM54 °FPassing clouds.9 mph72%29.89 "HgN/A
8:20 PM55 °FPassing clouds.10 mph67%29.89 "HgN/A
7:50 PM55 °FPassing clouds.12 mph67%29.89 "HgN/A
7:20 PM57 °FScattered clouds.12 mph67%29.89 "HgN/A
6:50 PM55 °FScattered clouds.7 mph77%29.86 "HgN/A
6:20 PM55 °FScattered clouds.6 mph77%29.86 "HgN/A
5:50 PM52 °FRain showers. Partly sunny.13 mph88%29.89 "Hg3 mi
5:20 PM55 °FBroken clouds.7 mph82%29.86 "HgN/A
4:50 PM54 °FPartly sunny.10 mph88%29.86 "HgN/A
4:20 PM54 °FPartly sunny.10 mph88%29.86 "HgN/A
3:50 PM54 °FLight rain. Broken clouds.13 mph94%29.86 "HgN/A
3:20 PM54 °FLight rain. Partly sunny.10 mph94%29.86 "Hg4 mi
2:50 PM55 °FSprinkles. Broken clouds.15 mph88%29.86 "HgN/A
2:20 PM59 °FSprinkles. Partly sunny.20 mph77%29.83 "HgN/A
1:50 PM59 °FSprinkles. Broken clouds.16 mph82%29.83 "HgN/A
1:20 PM59 °FBroken clouds.14 mph82%29.83 "HgN/A
12:50 PM55 °FBroken clouds.13 mph88%29.86 "HgN/A
12:20 PM55 °FRain showers. Partly sunny.20 mph82%29.86 "Hg3 mi
11:50 AM59 °FBroken clouds.13 mph72%29.83 "HgN/A
11:20 AM59 °FLight rain. Mostly cloudy.17 mph68%29.86 "HgN/A
10:50 AM59 °FMostly cloudy.17 mph68%29.86 "HgN/A
10:20 AM59 °FMore clouds than sun.14 mph68%29.86 "HgN/A
9:50 AM59 °FMore clouds than sun.16 mph68%29.86 "HgN/A
9:20 AM59 °FBroken clouds.15 mph63%29.86 "HgN/A
8:50 AM59 °FBroken clouds.14 mph63%29.86 "HgN/A
8:20 AM57 °FBroken clouds.16 mph67%29.86 "HgN/A
7:50 AM55 °FSunny.12 mph63%29.86 "Hg10 mi
7:20 AM54 °FPassing clouds.10 mph67%29.86 "HgN/A
6:50 AM54 °FSunny.12 mph67%29.86 "Hg10 mi
6:20 AM52 °FPartly sunny.10 mph67%29.89 "HgN/A
5:50 AM52 °FPassing clouds.9 mph67%29.89 "HgN/A
5:20 AM52 °FPartly cloudy.9 mph67%29.89 "HgN/A
4:50 AM52 °FPartly cloudy.8 mph67%29.92 "HgN/A
4:20 AM52 °FPassing clouds.10 mph67%29.92 "HgN/A
Weather by CustomWeather, © 2015

See weather overviewHow to use our weather pages